When you browse on this site, cookies collect data to enhance your experience and personalize the content and advertising you see.
Visit our Privacy Policy to learn more. By continuing to use the site, you agree to this use of cookies and data.
  • In Spain
  • List of Countries
  • For 7 days
  • Water Temperature
  • Weather Map
  • Weather Widgets
  • user-avatar
    Login

    Hourly Weather Semey

    Today, 17 November, Sunday

    Time Temperature Precipitation Wind Pressure Humidity
    00:00 -18°C° 0 mm 5 mps 759 mmHg 68%
    01:00 -17°C° 0 mm 5 mps 758 mmHg 66%
    02:00 -15°C° 0 mm 4 mps 757 mmHg 65%
    03:00 -15°C° 0 mm 4 mps 757 mmHg 66%
    04:00 -15°C° 0 mm 4 mps 757 mmHg 67%
    05:00 -15°C° 0 mm 4 mps 758 mmHg 69%
    06:00 -14°C° 0 mm 4 mps 757 mmHg 69%
    07:00 -14°C° 0 mm 4 mps 757 mmHg 69%
    08:00 -14°C° 0 mm 4 mps 757 mmHg 69%
    09:00 -12°C° 0 mm 4 mps 756 mmHg 66%
    10:00 -11°C° 0 mm 5 mps 756 mmHg 63%
    11:00 -10°C° 0 mm 5 mps 756 mmHg 60%
    12:00 -10°C° 0 mm 5 mps 755 mmHg 61%
    13:00 -8°C° 0 mm 5 mps 754 mmHg 62%
    14:00 -8°C° 0 mm 5 mps 754 mmHg 62%
    15:00 -8°C° 0 mm 5 mps 753 mmHg 64%
    16:00 -8°C° 0 mm 5 mps 753 mmHg 65%
    17:00 -9°C° 0 mm 6 mps 753 mmHg 67%
    18:00 -9°C° 0 mm 6 mps 752 mmHg 66%
    19:00 -9°C° 0 mm 6 mps 752 mmHg 66%
    20:00 -9°C° 0 mm 6 mps 751 mmHg 65%
    21:00 -7°C° 0 mm 5 mps 751 mmHg 66%
    22:00 -7°C° 0 mm 5 mps 751 mmHg 68%
    23:00 -6°C° 0 mm 5 mps 750 mmHg 69%

    Tomorrow, 18 November, Monday

    Time Temperature Precipitation Wind Pressure Humidity
    00:00 -6°C° 0 mm 5 mps 750 mmHg 69%
    01:00 -6°C° 0 mm 5 mps 749 mmHg 70%
    02:00 -6°C° 0 mm 5 mps 748 mmHg 70%
    03:00 -6°C° 0 mm 5 mps 748 mmHg 69%
    04:00 -6°C° 0 mm 5 mps 748 mmHg 69%
    05:00 -6°C° 0 mm 5 mps 748 mmHg 68%
    06:00 -6°C° 0 mm 5 mps 747 mmHg 68%
    07:00 -6°C° 0 mm 5 mps 747 mmHg 68%
    08:00 -5°C° 0 mm 5 mps 747 mmHg 68%
    09:00 -5°C° 0 mm 5 mps 746 mmHg 67%
    10:00 -4°C° 0 mm 6 mps 746 mmHg 66%
    11:00 -3°C° 0 mm 6 mps 746 mmHg 65%
    12:00 -3°C° 0 mm 6 mps 746 mmHg 67%
    13:00 -2°C° 0 mm 5 mps 745 mmHg 69%
    14:00 -2°C° 0 mm 5 mps 745 mmHg 72%
    15:00 -4°C° 0 mm 5 mps 745 mmHg 75%
    16:00 -4°C° 0 mm 5 mps 745 mmHg 78%
    17:00 -4°C° 0 mm 4 mps 745 mmHg 81%
    18:00 -5°C° 0.1 mm 5 mps 746 mmHg 83%
    19:00 -6°C° 0.1 mm 5 mps 746 mmHg 85%
    20:00 -6°C° 0.1 mm 5 mps 746 mmHg 87%
    21:00 -6°C° 0.1 mm 5 mps 746 mmHg 86%
    22:00 -6°C° 0.1 mm 5 mps 746 mmHg 86%
    23:00 -6°C° 0.1 mm 6 mps 746 mmHg 85%

    Day after tomorrow, 19 November, Tuesday

    Time Temperature Precipitation Wind Pressure Humidity
    00:00 -6°C° 0 mm 5 mps 745 mmHg 86%
    01:00 -6°C° 0 mm 5 mps 745 mmHg 87%
    02:00 -5°C° 0 mm 4 mps 745 mmHg 88%
    03:00 -5°C° 0 mm 4 mps 745 mmHg 88%
    04:00 -5°C° 0 mm 4 mps 745 mmHg 89%
    05:00 -5°C° 0 mm 3 mps 744 mmHg 89%
    06:00 -5°C° 0.1 mm 3 mps 744 mmHg 90%
    07:00 -5°C° 0.1 mm 4 mps 744 mmHg 91%
    08:00 -5°C° 0.1 mm 4 mps 744 mmHg 91%
    09:00 -7°C° 0.1 mm 4 mps 744 mmHg 91%
    10:00 -7°C° 0.1 mm 4 mps 744 mmHg 90%
    11:00 -8°C° 0.1 mm 4 mps 744 mmHg 90%
    12:00 -8°C° 0.5 mm 4 mps 743 mmHg 90%
    13:00 -9°C° 0.5 mm 4 mps 743 mmHg 91%
    14:00 -9°C° 0.5 mm 4 mps 743 mmHg 92%
    15:00 -10°C° 0.6 mm 4 mps 743 mmHg 92%
    16:00 -12°C° 0.6 mm 5 mps 743 mmHg 93%
    17:00 -13°C° 0.6 mm 5 mps 743 mmHg 93%
    18:00 -14°C° 0.6 mm 5 mps 743 mmHg 93%
    19:00 -15°C° 0.6 mm 5 mps 743 mmHg 93%
    20:00 -17°C° 0.6 mm 6 mps 743 mmHg 93%
    21:00 -18°C° 0.4 mm 5 mps 744 mmHg 93%
    22:00 -18°C° 0.4 mm 5 mps 744 mmHg 93%
    23:00 -19°C° 0.4 mm 5 mps 745 mmHg 93%

    20 November, Wednesday

    Time Temperature Precipitation Wind Pressure Humidity
    00:00 -20°C° 0.1 mm 5 mps 746 mmHg 93%
    01:00 -21°C° 0.1 mm 5 mps 747 mmHg 93%
    02:00 -22°C° 0.1 mm 5 mps 748 mmHg 93%
    03:00 -22°C° 0.1 mm 5 mps 749 mmHg 93%
    04:00 -24°C° 0.1 mm 5 mps 750 mmHg 93%
    05:00 -24°C° 0.1 mm 4 mps 750 mmHg 93%
    06:00 -25°C° 0 mm 4 mps 751 mmHg 93%
    07:00 -27°C° 0 mm 4 mps 752 mmHg 94%
    08:00 -29°C° 0 mm 4 mps 752 mmHg 95%
    09:00 -27°C° 0 mm 4 mps 752 mmHg 93%
    10:00 -27°C° 0 mm 4 mps 753 mmHg 91%
    11:00 -26°C° 0 mm 3 mps 753 mmHg 90%
    12:00 -25°C° 0 mm 3 mps 753 mmHg 89%
    13:00 -25°C° 0 mm 3 mps 753 mmHg 89%
    14:00 -25°C° 0 mm 3 mps 753 mmHg 89%
    15:00 -26°C° 0 mm 3 mps 754 mmHg 91%
    16:00 -27°C° 0 mm 3 mps 754 mmHg 93%
    17:00 -29°C° 0 mm 3 mps 754 mmHg 94%
    18:00 -29°C° 0 mm 3 mps 754 mmHg 94%
    19:00 -29°C° 0 mm 3 mps 755 mmHg 94%
    20:00 -29°C° 0 mm 3 mps 755 mmHg 95%
    21:00 -29°C° 0 mm 3 mps 755 mmHg 95%
    22:00 -27°C° 0 mm 3 mps 755 mmHg 95%
    23:00 -26°C° 0 mm 2 mps 756 mmHg 95%

    21 November, Thursday

    Time Temperature Precipitation Wind Pressure Humidity
    00:00 -26°C° 0 mm 2 mps 756 mmHg 95%
    01:00 -26°C° 0 mm 2 mps 756 mmHg 95%
    02:00 -26°C° 0 mm 2 mps 757 mmHg 95%
    03:00 -26°C° 0 mm 2 mps 757 mmHg 95%
    04:00 -27°C° 0 mm 2 mps 757 mmHg 96%
    05:00 -27°C° 0 mm 2 mps 757 mmHg 96%
    06:00 -29°C° 0 mm 3 mps 758 mmHg 96%
    07:00 -30°C° 0 mm 3 mps 758 mmHg 96%
    08:00 -30°C° 0 mm 3 mps 759 mmHg 97%
    09:00 -29°C° 0 mm 3 mps 759 mmHg 94%
    10:00 -27°C° 0 mm 3 mps 759 mmHg 92%
    11:00 -26°C° 0 mm 3 mps 760 mmHg 90%
    12:00 -25°C° 0 mm 2 mps 759 mmHg 90%
    13:00 -25°C° 0 mm 2 mps 759 mmHg 89%
    14:00 -25°C° 0 mm 2 mps 759 mmHg 89%
    15:00 -26°C° 0 mm 2 mps 759 mmHg 90%
    16:00 -29°C° 0 mm 3 mps 759 mmHg 91%
    17:00 -30°C° 0 mm 3 mps 759 mmHg 92%
    18:00 -30°C° 0 mm 3 mps 758 mmHg 91%
    19:00 -30°C° 0 mm 3 mps 758 mmHg 90%
    20:00 -31°C° 0 mm 4 mps 758 mmHg 89%
    21:00 -31°C° 0 mm 4 mps 758 mmHg 88%
    22:00 -31°C° 0 mm 4 mps 757 mmHg 87%
    23:00 -31°C° 0 mm 4 mps 757 mmHg 87%

    22 November, Friday

    Time Temperature Precipitation Wind Pressure Humidity
    00:00 -31°C° 0 mm 4 mps 756 mmHg 86%
    01:00 -30°C° 0 mm 4 mps 756 mmHg 86%
    02:00 -30°C° 0 mm 4 mps 755 mmHg 85%
    03:00 -30°C° 0 mm 4 mps 755 mmHg 85%
    04:00 -29°C° 0 mm 4 mps 755 mmHg 84%
    05:00 -29°C° 0 mm 4 mps 754 mmHg 83%
    06:00 -27°C° 0 mm 4 mps 754 mmHg 82%
    07:00 -26°C° 0 mm 4 mps 754 mmHg 81%
    08:00 -24°C° 0 mm 3 mps 754 mmHg 81%
    09:00 -23°C° 0 mm 3 mps 754 mmHg 79%
    10:00 -21°C° 0 mm 3 mps 754 mmHg 77%
    11:00 -19°C° 0 mm 3 mps 754 mmHg 75%
    12:00 -18°C° 0 mm 3 mps 754 mmHg 76%
    13:00 -18°C° 0 mm 3 mps 753 mmHg 77%
    14:00 -17°C° 0 mm 3 mps 753 mmHg 79%
    15:00 -17°C° 0 mm 2 mps 753 mmHg 79%
    16:00 -18°C° 0 mm 2 mps 754 mmHg 80%
    17:00 -19°C° 0 mm 2 mps 754 mmHg 80%
    18:00 -19°C° 0 mm 2 mps 754 mmHg 80%
    19:00 -19°C° 0 mm 2 mps 754 mmHg 80%
    20:00 -19°C° 0 mm 2 mps 754 mmHg 81%
    21:00 -19°C° 0 mm 2 mps 755 mmHg 85%
    22:00 -19°C° 0 mm 2 mps 755 mmHg 90%
    23:00 -18°C° 0 mm 2 mps 755 mmHg 94%
    Show more